When you browse on this site, cookies collect data to enhance your experience and personalize the content and advertising you see.
Visit our Privacy Policy to learn more. By continuing to use the site, you agree to this use of cookies and data.
EN

Hourly Weather Zelenaya Roscha

Today, 7 August, Friday

Time Temperature Precipitation Wind Pressure Humidity
00:00 +17°C° 0 mm 2 mps 755 mmHg 87%
01:00 +17°C° 0 mm 2 mps 755 mmHg 87%
02:00 +16°C° 0 mm 2 mps 756 mmHg 89%
03:00 +16°C° 0 mm 2 mps 755 mmHg 90%
04:00 +16°C° 0 mm 2 mps 755 mmHg 90%
05:00 +16°C° 0 mm 2 mps 755 mmHg 91%
06:00 +17°C° 0 mm 2 mps 756 mmHg 86%
07:00 +19°C° 0 mm 2 mps 756 mmHg 81%
08:00 +21°C° 0 mm 2 mps 757 mmHg 76%
09:00 +22°C° 0 mm 3 mps 757 mmHg 71%
10:00 +25°C° 0 mm 3 mps 756 mmHg 66%
11:00 +26°C° 0 mm 3 mps 756 mmHg 60%
12:00 +26°C° 0 mm 3 mps 756 mmHg 60%
13:00 +27°C° 0 mm 3 mps 756 mmHg 60%
14:00 +27°C° 0 mm 3 mps 756 mmHg 59%
15:00 +27°C° 0 mm 3 mps 755 mmHg 62%
16:00 +27°C° 0 mm 3 mps 755 mmHg 65%
17:00 +26°C° 0 mm 3 mps 755 mmHg 68%
18:00 +25°C° 0 mm 3 mps 755 mmHg 74%
19:00 +23°C° 0 mm 2 mps 755 mmHg 80%
20:00 +20°C° 0 mm 2 mps 755 mmHg 87%
21:00 +20°C° 0 mm 2 mps 755 mmHg 89%
22:00 +19°C° 0 mm 2 mps 755 mmHg 91%
23:00 +20°C° 0 mm 1 mps 755 mmHg 92%

Tomorrow, 8 August, Saturday

Time Temperature Precipitation Wind Pressure Humidity
00:00 +19°C° 0 mm 1 mps 755 mmHg 93%
01:00 +19°C° 0 mm 1 mps 755 mmHg 93%
02:00 +19°C° 0 mm 1 mps 755 mmHg 93%
03:00 +18°C° 0 mm 1 mps 755 mmHg 93%
04:00 +18°C° 0 mm 1 mps 755 mmHg 94%
05:00 +18°C° 0 mm 1 mps 755 mmHg 94%
06:00 +19°C° 0 mm 1 mps 755 mmHg 89%
07:00 +20°C° 0 mm 2 mps 755 mmHg 84%
08:00 +21°C° 0 mm 2 mps 755 mmHg 78%
09:00 +23°C° 0 mm 2 mps 755 mmHg 74%
10:00 +24°C° 0 mm 2 mps 755 mmHg 69%
11:00 +26°C° 0 mm 2 mps 754 mmHg 65%
12:00 +26°C° 0 mm 2 mps 754 mmHg 63%
13:00 +26°C° 0 mm 2 mps 754 mmHg 61%
14:00 +27°C° 0 mm 2 mps 753 mmHg 60%
15:00 +26°C° 0 mm 2 mps 753 mmHg 62%
16:00 +26°C° 0 mm 2 mps 753 mmHg 64%
17:00 +26°C° 0 mm 2 mps 752 mmHg 66%
18:00 +24°C° 0 mm 2 mps 752 mmHg 73%
19:00 +23°C° 0 mm 2 mps 752 mmHg 79%
20:00 +20°C° 0 mm 2 mps 752 mmHg 86%
21:00 +19°C° 0 mm 2 mps 752 mmHg 88%
22:00 +19°C° 0 mm 2 mps 752 mmHg 90%
23:00 +19°C° 0 mm 1 mps 752 mmHg 92%

Day after tomorrow, 9 August, Sunday

Time Temperature Precipitation Wind Pressure Humidity
00:00 +19°C° 0 mm 1 mps 752 mmHg 92%
01:00 +18°C° 0 mm 1 mps 752 mmHg 92%
02:00 +18°C° 0 mm 1 mps 752 mmHg 92%
03:00 +18°C° 0 mm 1 mps 752 mmHg 93%
04:00 +18°C° 0 mm 1 mps 751 mmHg 93%
05:00 +16°C° 0 mm 1 mps 751 mmHg 93%
06:00 +18°C° 0 mm 2 mps 751 mmHg 88%
07:00 +20°C° 0 mm 2 mps 751 mmHg 82%
08:00 +21°C° 0 mm 2 mps 751 mmHg 77%
09:00 +23°C° 0.3 mm 2 mps 751 mmHg 73%
10:00 +25°C° 0.3 mm 2 mps 751 mmHg 69%
11:00 +26°C° 0.3 mm 3 mps 751 mmHg 64%
12:00 +26°C° 0.3 mm 3 mps 751 mmHg 64%
13:00 +26°C° 0.3 mm 3 mps 750 mmHg 64%
14:00 +26°C° 0.3 mm 3 mps 750 mmHg 64%
15:00 +26°C° 0.4 mm 2 mps 750 mmHg 68%
16:00 +25°C° 0.4 mm 2 mps 750 mmHg 71%
17:00 +25°C° 0.4 mm 2 mps 749 mmHg 74%
18:00 +24°C° 0.1 mm 2 mps 749 mmHg 77%
19:00 +23°C° 0.1 mm 2 mps 749 mmHg 81%
20:00 +21°C° 0.1 mm 1 mps 749 mmHg 84%
21:00 +21°C° 0.5 mm 1 mps 749 mmHg 86%
22:00 +20°C° 0.5 mm 2 mps 749 mmHg 87%
23:00 +19°C° 0.5 mm 2 mps 750 mmHg 89%

10 August, Monday

Time Temperature Precipitation Wind Pressure Humidity
00:00 +19°C° 0.1 mm 2 mps 749 mmHg 90%
01:00 +18°C° 0.1 mm 2 mps 749 mmHg 91%
02:00 +18°C° 0.1 mm 2 mps 749 mmHg 92%
03:00 +17°C° 0 mm 2 mps 749 mmHg 93%
04:00 +17°C° 0 mm 2 mps 749 mmHg 93%
05:00 +16°C° 0 mm 2 mps 749 mmHg 94%
06:00 +18°C° 0 mm 2 mps 749 mmHg 90%
07:00 +19°C° 0 mm 2 mps 749 mmHg 85%
08:00 +21°C° 0 mm 2 mps 749 mmHg 81%
09:00 +23°C° 0.1 mm 2 mps 749 mmHg 74%
10:00 +25°C° 0.1 mm 2 mps 749 mmHg 68%
11:00 +26°C° 0.1 mm 2 mps 749 mmHg 61%
12:00 +27°C° 0.4 mm 2 mps 749 mmHg 59%
13:00 +27°C° 0.4 mm 2 mps 749 mmHg 58%
14:00 +28°C° 0.4 mm 1 mps 748 mmHg 56%
15:00 +27°C° 0.4 mm 2 mps 748 mmHg 60%
16:00 +27°C° 0.4 mm 2 mps 748 mmHg 63%
17:00 +26°C° 0.4 mm 2 mps 748 mmHg 67%
18:00 +25°C° 0 mm 2 mps 748 mmHg 72%
19:00 +23°C° 0 mm 1 mps 748 mmHg 77%
20:00 +21°C° 0 mm 1 mps 748 mmHg 82%
21:00 +21°C° 0.1 mm 1 mps 748 mmHg 83%
22:00 +20°C° 0.1 mm 1 mps 748 mmHg 85%
23:00 +20°C° 0.1 mm 1 mps 748 mmHg 87%

11 August, Tuesday

Time Temperature Precipitation Wind Pressure Humidity
00:00 +19°C° 0.1 mm 1 mps 748 mmHg 88%
01:00 +19°C° 0.1 mm 1 mps 748 mmHg 89%
02:00 +19°C° 0.1 mm 1 mps 747 mmHg 90%
03:00 +18°C° 0 mm 1 mps 747 mmHg 91%
04:00 +18°C° 0 mm 1 mps 747 mmHg 92%
05:00 +18°C° 0 mm 1 mps 747 mmHg 93%
06:00 +19°C° 0.1 mm 1 mps 747 mmHg 89%
07:00 +20°C° 0.1 mm 2 mps 748 mmHg 86%
08:00 +21°C° 0.1 mm 2 mps 748 mmHg 83%
09:00 +23°C° 0.6 mm 2 mps 748 mmHg 78%
10:00 +24°C° 0.6 mm 3 mps 747 mmHg 74%
11:00 +25°C° 0.6 mm 3 mps 747 mmHg 70%
12:00 +25°C° 0.4 mm 4 mps 747 mmHg 69%
13:00 +25°C° 0.4 mm 4 mps 747 mmHg 69%
14:00 +25°C° 0.4 mm 4 mps 747 mmHg 69%
15:00 +25°C° 0.1 mm 4 mps 747 mmHg 69%
16:00 +23°C° 0.1 mm 4 mps 747 mmHg 69%
17:00 +23°C° 0.1 mm 4 mps 747 mmHg 69%
18:00 +21°C° 0 mm 4 mps 747 mmHg 72%
19:00 +19°C° 0 mm 4 mps 748 mmHg 76%
20:00 +17°C° 0 mm 3 mps 748 mmHg 79%
21:00 +16°C° 0 mm 3 mps 748 mmHg 81%
22:00 +14°C° 0 mm 3 mps 748 mmHg 83%
23:00 +13°C° 0 mm 3 mps 749 mmHg 85%

12 August, Wednesday

Time Temperature Precipitation Wind Pressure Humidity
00:00 +12°C° 0 mm 3 mps 749 mmHg 86%
01:00 +11°C° 0 mm 3 mps 749 mmHg 87%
02:00 +12°C° 0 mm 2 mps 749 mmHg 88%
03:00 +10°C° 0 mm 3 mps 749 mmHg 90%
04:00 +10°C° 0 mm 3 mps 749 mmHg 92%
05:00 +10°C° 0 mm 3 mps 749 mmHg 94%
06:00 +11°C° 0 mm 3 mps 749 mmHg 88%
07:00 +12°C° 0 mm 3 mps 749 mmHg 82%
08:00 +14°C° 0 mm 4 mps 750 mmHg 76%
09:00 +15°C° 0 mm 4 mps 750 mmHg 71%
10:00 +17°C° 0 mm 4 mps 750 mmHg 65%
11:00 +18°C° 0 mm 4 mps 750 mmHg 59%
12:00 +18°C° 0.1 mm 4 mps 750 mmHg 61%
13:00 +18°C° 0.1 mm 4 mps 749 mmHg 63%
14:00 +18°C° 0.1 mm 4 mps 749 mmHg 65%
15:00 +18°C° 0.1 mm 4 mps 749 mmHg 67%
16:00 +17°C° 0.1 mm 4 mps 750 mmHg 68%
17:00 +17°C° 0.1 mm 4 mps 750 mmHg 70%
18:00 +16°C° 0 mm 3 mps 750 mmHg 75%
19:00 +14°C° 0 mm 3 mps 750 mmHg 80%
20:00 +14°C° 0 mm 2 mps 750 mmHg 85%
21:00 +13°C° 0 mm 2 mps 750 mmHg 86%
22:00 +13°C° 0 mm 2 mps 750 mmHg 87%
23:00 +11°C° 0 mm 3 mps 750 mmHg 89%
Show more